GW4174 Weather Reports


time (UTC)temp
C
wind
direction
speed
KPH
gust
KPH
rain 1hr
cm
rain 24hr
cm
rain mn
cm
humidity
%
barometer
mb
20260505111524 4 141 0.0 0.0 0.00 0.00 0.00 76 1015.2
20260505101531 5 47 0.0 1.6 0.00 0.00 0.00 73 1015.1
20260505100024 5 125 0.0 3.2 0.00 0.00 0.00 73 1015.1
20260505094523 5 273 0.0 0.0 0.00 0.00 0.00 69 1015.0
20260505093034 5 260 0.0 1.6 0.00 0.00 0.00 70 1015.1
20260505091503 5 270 1.6 4.8 0.00 0.00 0.00 66 1015.1
20260505090003 5 282 0.0 3.2 0.00 0.00 0.00 64 1015.2
20260505084502 5 256 1.6 6.4 0.00 0.00 0.00 66 1015.2
20260505083008 6 75 0.0 0.0 0.00 0.00 0.00 65 1015.3
20260505081507 6 293 0.0 1.6 0.00 0.00 0.00 67 1015.2
20260505080003 6 30 0.0 4.8 0.00 0.00 0.00 66 1015.4
20260505074502 6 2 0.0 3.2 0.00 0.00 0.00 65 1015.5
20260505073005 6 183 0.0 1.6 0.00 0.00 0.00 65 1015.4
20260505071507 6 285 3.2 4.8 0.00 0.00 0.00 62 1015.4
20260505070006 7 353 0.0 3.2 0.00 0.00 0.00 60 1015.4
20260505064504 7 262 1.6 1.6 0.00 0.00 0.00 61 1015.4
20260505063005 8 255 1.6 3.2 0.00 0.00 0.00 58 1015.2
20260505061508 8 274 1.6 4.8 0.00 0.00 0.00 58 1015.2
20260505060006 8 303 1.6 6.4 0.00 0.00 0.00 58 1015.1
20260505054508 8 334 3.2 3.2 0.00 0.00 0.00 55 1015.1
20260505053003 9 65 0.0 1.6 0.00 0.00 0.00 52 1015.0
20260505051512 9 284 0.0 4.8 0.00 0.00 0.00 53 1015.1
20260505041511 11 281 3.2 19.3 0.00 0.00 0.00 40 1014.6
20260505040010 11 327 4.8 19.3 0.00 0.00 0.00 41 1014.3
20260505034513 11 97 8.0 20.9 0.00 0.00 0.00 40 1014.2
20260505033011 12 75 9.7 20.9 0.00 0.00 0.00 39 1014.0
20260505031516 12 169 9.7 20.9 0.00 0.00 0.00 40 1013.8
20260505030013 12 183 3.2 20.9 0.00 0.00 0.00 40 1013.7
20260505024510 12 122 8.0 17.7 0.00 0.00 0.00 40 1013.6
20260505023009 12 332 6.4 29.0 0.00 0.00 0.00 39 1013.6
20260505021514 13 131 3.2 20.9 0.00 0.00 0.00 39 1013.5
20260505020014 13 89 6.4 16.1 0.00 0.00 0.00 39 1013.5
20260505014514 13 22 4.8 12.9 0.00 0.00 0.00 40 1013.4
20260505013008 13 8 8.0 25.7 0.00 0.00 0.00 40 1013.3
20260505011516 14 22 6.4 17.7 0.00 0.00 0.00 39 1013.5
20260505010017 15 325 4.8 14.5 0.00 0.00 0.00 38 1013.6
20260505004520 15 102 9.7 19.3 0.00 0.00 0.00 37 1013.3
20260505003022 15 106 8.0 27.4 0.00 0.00 0.00 38 1013.5
20260505001509 16 72 6.4 14.5 0.00 0.00 0.00 38 1013.5
20260505000005 15 79 9.7 19.3 0.00 0.00 0.00 39 1013.4
20260504234504 15 348 8.0 20.9 0.00 0.00 0.00 39 1013.4
20260504233006 16 98 6.4 22.5 0.00 0.00 0.00 39 1013.4
20260504231507 16 161 9.7 29.0 0.00 0.00 0.00 39 1013.4
20260504230012 16 103 8.0 22.5 0.00 0.00 0.00 38 1013.2
20260504224503 16 56 12.9 19.3 0.00 0.00 0.00 38 1013.1
20260504223003 16 47 8.0 27.4 0.00 0.00 0.00 39 1013.2
20260504221507 16 81 11.3 22.5 0.00 0.00 0.00 39 1013.2
20260504220009 16 97 4.8 12.9 0.00 0.00 0.00 39 1013.2
20260504214514 16 100 8.0 12.9 0.00 0.00 0.00 37 1013.3
20260504213020 16 332 1.6 17.7 0.00 0.00 0.00 35 1013.2
20260504211503 16 87 1.6 19.3 0.00 0.00 0.00 35 1013.2
20260504210005 17 113 9.7 19.3 0.00 0.00 0.00 36 1013.2
20260504204525 17 226 1.6 9.7 0.00 0.00 0.00 39 1013.2
20260504203023 16 75 1.6 16.1 0.00 0.00 0.00 36 1013.2
20260504201522 16 110 6.4 19.3 0.00 0.00 0.00 35 1013.4
20260504200005 17 96 9.7 16.1 0.00 0.00 0.00 37 1013.2
20260504194508 17 120 6.4 12.9 0.00 0.00 0.00 39 1013.2
20260504193017 17 119 3.2 6.4 0.00 0.00 0.00 36 1013.4
20260504191524 16 4 3.2 9.7 0.00 0.00 0.00 36 1013.5
20260504190021 16 119 8.0 20.9 0.00 0.00 0.00 39 1013.6
20260504184505 16 342 4.8 19.3 0.00 0.00 0.00 35 1013.7
20260504183012 16 91 6.4 14.5 0.00 0.00 0.00 39 1013.8
20260504181517 16 95 8.0 25.7 0.00 0.00 0.00 38 1013.8
20260504180021 16 101 14.5 22.5 0.00 0.00 0.00 38 1013.8
20260504174524 16 86 6.4 17.7 0.00 0.00 0.00 40 1013.9
20260504173008 16 155 6.4 14.5 0.00 0.00 0.00 40 1013.9
20260504171513 16 215 3.2 11.3 0.00 0.00 0.00 40 1013.9